Wind_Speed
63 63 63 63 64 65 65 66 66 66 67 68 68 69 70 71 72 72 73 74 75 75 76 77 77 78 79 80 81 82 82 83 84 85 86 87 88 89 91 92 93 94 95 96 98 99 101 102 103 104 105 107 110 112 114 115 117 119 120 119 119 119 119 119 119 119 120 120 120 120 118 116 114 112 110 107 105 103 101 99 97 95 92 89 87
65 65 66 66 66 67 67 67 68 68 69 70 71 72 72 73 73 74 75 76 77 77 78 78 79 80 81 82 83 84 84 85 86 87 88 89 90 91 92 94 95 96 97 98 100 101 102 103 105 106 107 109 112 114 116 118 118 119 119 118 117 117 117 118 118 118 118 118 117 115 112 110 107 105 104 101 100 98 96 94 92 90 88 85 84
68 68 68 68 69 69 69 69 70 70 71 72 73 73 74 75 75 76 77 78 78 79 80 81 81 82 83 84 85 86 87 88 89 90 91 91 92 93 95 96 97 98 99 100 102 103 105 106 107 109 110 112 114 116 118 119 119 118 118 117 116 116 116 116 116 115 114 112 110 107 105 103 100 99 97 96 95 93 91 89 87 85 84 82 81
71 71 71 71 71 71 71 72 72 73 74 75 75 75 76 77 77 78 79 80 80 81 82 83 83 84 85 86 87 89 90 91 91 92 93 94 94 96 97 98 100 101 102 103 105 106 108 109 110 111 112 114 116 116 117 118 117 116 115 114 115 115 114 114 112 110 108 105 103 100 98 96 95 93 91 90 89 88 86 84 83 82 81 80 79
73 73 73 73 73 74 74 74 75 76 76 77 77 77 78 78 79 80 81 82 82 83 84 84 85 86 87 89 90 91 92 93 94 94 95 96 97 98 99 101 102 103 105 106 107 108 110 111 112 112 113 114 114 114 114 114 114 113 113 112 112 112 110 108 106 103 100 98 96 94 92 90 88 87 86 85 84 83 82 81 80 79 79 78 78
75 74 74 75 75 76 76 77 77 78 78 78 79 79 80 81 81 82 83 84 84 85 86 86 88 89 91 92 93 94 94 95 96 97 98 99 100 101 102 103 104 105 107 108 109 111 112 113 113 113 114 114 113 112 111 110 110 110 110 109 108 107 104 101 98 95 93 91 89 87 86 85 83 83 83 82 81 80 80 79 79 78 78 78 78
77 76 76 77 78 78 79 79 79 80 80 80 81 81 82 83 84 85 86 86 87 87 88 89 91 92 93 94 95 96 96 97 98 99 100 101 102 103 104 105 106 107 108 110 111 113 113 114 114 113 113 112 111 109 107 106 106 106 106 104 102 99 95 92 89 87 85 84 83 82 82 81 81 81 81 80 79 79 79 79 78 78 78 78 79
78 78 79 79 80 80 81 81 81 82 82 82 83 84 85 86 87 87 88 88 89 90 91 92 93 94 95 96 97 98 98 99 100 101 102 103 103 105 106 107 109 109 110 112 113 114 114 114 113 112 110 108 107 105 104 104 104 102 100 96 93 89 87 85 84 82 81 81 80 81 80 80 80 80 80 80 80 80 80 80 79 79 79 80 81
80 80 81 81 82 82 83 83 83 84 84 84 85 86 87 88 88 89 89 90 91 92 93 94 95 97 98 98 99 99 100 101 102 102 103 105 106 107 108 109 110 111 112 113 113 114 114 113 111 109 106 104 103 102 101 100 98 95 91 88 86 84 83 82 82 81 80 80 80 80 80 80 80 80 80 80 81 81 82 82 82 83 83 83 84
82 82 82 83 83 84 85 85 85 85 86 86 87 88 89 90 90 91 92 93 94 95 95 97 98 99 99 100 100 100 101 102 103 104 106 107 108 109 110 111 112 112 113 113 113 113 111 109 107 104 102 101 100 98 96 94 91 89 86 85 83 82 82 81 80 79 79 78 78 79 79 79 80 80 81 82 83 84 85 86 86 86 85 85 85
84 84 84 85 86 86 87 87 87 87 88 88 89 90 91 92 93 94 95 95 96 97 98 99 99 100 100 101 101 102 104 105 106 107 108 109 110 111 112 112 113 113 112 112 111 109 107 104 101 99 98 98 96 94 90 88 86 83 82 80 79 78 78 77 76 76 76 77 77 77 78 79 81 82 84 85 86 87 88 88 87 86 86 86 86
86 86 87 87 88 88 88 89 89 89 90 90 91 92 93 94 95 96 96 97 97 98 99 100 100 101 101 102 104 105 106 106 107 108 109 110 111 112 113 113 112 112 111 110 107 104 100 98 95 94 93 92 90 88 84 81 79 77 76 76 76 76 75 75 76 76 76 77 77 78 79 81 82 83 85 86 86 87 88 88 88 87 87 87 87
88 89 89 90 90 90 90 90 90 91 91 92 93 94 95 96 97 97 97 98 98 100 100 101 102 103 104 105 106 107 107 108 109 109 110 112 113 113 113 112 112 110 108 105 101 97 94 92 90 89 87 84 83 81 79 77 75 75 75 75 75 75 75 76 76 77 77 77 78 78 79 80 81 82 83 84 85 86 87 88 89 89 89 88 89
90 90 91 91 92 92 92 92 92 92 93 94 95 96 97 98 98 98 98 99 100 101 102 103 104 105 106 107 107 108 108 109 110 111 112 113 113 112 112 111 109 106 102 98 94 91 89 87 85 83 81 79 78 77 76 75 75 75 74 74 74 74 74 75 75 75 76 76 77 78 79 79 80 81 82 83 84 85 87 88 89 90 90 90 90
91 92 92 93 93 93 93 93 93 94 95 96 97 98 99 99 99 99 100 101 102 103 104 105 106 107 107 108 108 109 109 110 111 112 112 112 111 111 109 107 104 99 95 92 88 85 83 81 80 78 77 76 75 75 75 75 74 74 73 72 72 73 73 73 73 73 74 75 76 77 79 80 81 81 82 83 84 85 86 87 88 89 90 90 91
93 93 94 94 94 94 94 94 95 96 97 98 99 100 100 100 100 101 102 103 103 104 106 106 107 108 108 108 109 110 110 111 111 111 111 110 109 107 104 100 96 92 88 85 83 80 78 76 75 75 74 73 73 73 73 73 73 73 72 72 72 72 72 72 72 73 74 76 77 79 80 82 83 84 84 84 84 85 85 86 88 88 90 91 91
95 95 95 96 96 96 96 96 97 98 99 99 100 101 100 101 101 102 103 104 105 106 107 107 108 108 108 109 109 110 110 109 109 108 107 106 104 100 96 92 88 85 83 81 79 77 75 74 74 73 73 73 73 73 73 73 72 71 71 71 71 72 73 73 74 75 76 77 79 81 83 84 86 87 88 87 86 86 86 87 88 88 90 91 92
97 97 97 97 97 98 98 99 99 100 100 100 101 101 101 101 102 103 104 105 106 107 107 107 108 108 108 108 108 108 107 106 106 105 103 101 97 93 89 85 82 80 79 79 77 76 75 75 75 74 74 74 74 73 73 72 72 71 71 71 72 73 74 75 76 77 78 80 81 83 85 88 89 91 91 91 90 89 89 88 88 89 90 92 93
99 99 99 99 99 99 100 100 101 101 101 101 101 101 102 102 103 104 105 106 107 107 107 107 107 106 106 105 105 105 104 103 102 101 98 94 90 86 82 79 78 77 77 77 76 76 76 76 76 75 75 74 74 73 73 72 72 71 71 72 72 74 75 76 77 78 80 82 84 86 88 90 92 93 94 94 94 93 92 91 90 90 91 92 94
102 102 101 101 101 101 101 102 101 101 101 101 101 102 102 103 104 105 106 106 106 106 105 105 105 104 103 102 102 101 100 99 97 94 90 85 81 78 75 74 74 74 74 74 74 74 75 74 74 73 73 73 73 73 72 72 71 71 72 72 73 74 76 77 78 80 82 84 86 88 90 92 93 95 96 97 97 96 95 94 92 91 92 93 94
104 103 103 102 102 102 103 102 101 101 101 101 101 103 103 103 104 104 105 105 105 104 103 103 102 101 100 98 97 96 95 92 89 85 81 76 72 70 70 71 72 72 72 72 71 72 72 72 72 72 71 71 70 70 70 70 71 71 72 72 73 74 76 78 80 82 84 86 88 90 93 94 96 98 99 100 100 100 98 97 95 94 93 93 94
105 104 103 103 103 103 103 103 102 101 101 101 102 103 103 103 102 102 102 103 103 102 100 99 98 96 94 92 91 89 87 84 79 75 72 68 66 66 67 68 68 68 69 70 70 70 70 70 71 70 69 68 68 68 69 69 70 71 72 72 73 75 77 79 82 84 86 88 91 93 96 99 101 103 104 104 104 103 102 100 98 96 95 94 95
104 104 103 103 104 104 103 102 102 101 101 101 101 102 102 101 100 100 99 99 99 97 95 94 93 92 90 88 86 83 79 75 72 70 68 66 65 65 65 65 64 64 64 65 66 67 68 68 68 68 68 68 68 69 69 70 71 72 73 74 75 77 79 81 83 86 89 92 95 99 102 105 107 108 108 108 108 107 105 103 101 98 96 95 95
104 103 104 104 104 104 103 102 101 101 100 100 100 99 99 99 99 98 97 96 94 93 91 89 88 87 86 84 82 79 75 72 70 69 68 68 68 67 67 66 65 64 63 63 63 64 64 65 66 66 67 68 69 70 71 72 73 74 75 76 77 79 81 84 86 89 93 97 101 105 109 112 113 113 113 112 110 109 107 105 103 100 97 96 95
102 103 103 103 102 102 102 101 100 98 97 97 97 97 97 97 97 96 94 91 90 89 88 87 86 84 82 80 78 76 74 72 70 69 69 69 70 69 68 68 67 66 65 65 65 65 65 66 67 68 68 70 71 72 73 74 75 76 77 78 79 81 84 88 91 94 98 102 106 110 114 117 118 118 117 115 112 111 109 107 105 102 100 97 95
101 101 101 100 100 100 99 98 97 95 95 94 94 95 95 95 93 91 89 87 86 86 87 86 84 82 80 78 77 76 74 73 71 70 70 71 72 72 71 71 70 69 68 68 68 69 69 70 71 71 72 73 74 75 76 77 78 79 80 81 83 86 89 92 96 99 103 107 110 114 117 120 122 122 120 117 114 112 111 109 107 105 102 100 97
100 101 100 100 99 98 97 96 95 94 93 93 93 93 92 90 88 87 85 85 85 85 84 83 82 80 79 77 76 76 76 75 73 72 72 74 75 75 75 74 74 74 73 73 73 74 74 75 75 76 77 77 79 79 80 81 82 82 83 85 88 91 94 97 100 103 107 110 114 117 120 122 124 124 122 118 115 114 113 111 109 107 104 102 99
98 97 96 95 95 95 95 94 93 93 92 91 90 88 87 85 84 84 84 84 84 83 81 81 80 80 79 79 79 79 78 78 76 75 75 76 77 78 79 79 79 80 79 79 79 79 79 80 80 80 81 82 83 84 84 85 86 87 88 90 92 95 98 101 104 107 111 114 117 120 122 124 126 126 124 120 117 116 114 113 110 108 106 104 102
92 92 91 91 92 92 92 90 89 89 87 86 85 84 83 82 83 83 83 83 82 81 80 80 80 81 81 81 82 82 81 80 78 77 78 79 80 81 83 83 84 85 85 85 86 86 86 86 85 85 86 86 87 88 89 90 91 92 94 96 98 100 102 105 108 111 115 118 121 123 125 127 128 128 126 122 119 117 116 114 112 110 108 106 104
90 91 90 89 88 86 85 84 83 82 82 81 81 81 81 82 82 82 81 81 81 80 80 80 81 81 81 82 84 84 82 80 79 80 81 82 83 84 85 86 87 88 89 90 91 91 92 92 91 90 90 91 92 92 93 95 96 98 99 101 103 105 107 109 112 115 118 121 124 126 128 130 131 130 127 124 120 118 116 115 114 113 111 108 106
86 84 82 80 79 78 78 78 79 79 79 80 80 80 81 81 80 80 80 80 79 80 81 82 82 82 82 84 85 84 81 80 80 81 82 84 85 86 87 88 89 90 92 93 94 95 96 96 95 94 94 94 95 96 98 99 101 103 104 106 107 109 111 113 116 118 121 124 127 129 132 134 134 132 129 125 122 119 117 116 115 115 113 112 110
76 75 74 74 74 74 75 76 78 79 79 79 79 79 79 79 79 79 79 80 80 80 82 84 84 84 85 85 84 82 81 82 82 83 84 85 86 87 89 89 90 92 94 95 97 98 99 99 99 98 97 98 99 100 101 103 105 106 108 109 111 113 115 117 120 122 125 127 130 132 135 137 136 133 130 127 123 120 119 118 117 117 116 115 114
71 71 72 72 72 73 75 76 77 78 78 78 78 79 79 79 78 79 80 81 82 83 85 86 87 87 87 86 85 84 84 84 84 85 86 86 87 89 90 91 92 93 95 97 99 100 102 102 102 101 100 101 102 103 104 106 108 109 111 112 114 116 118 121 123 125 128 131 133 135 138 140 137 134 131 128 125 122 120 119 119 119 118 117 117
71 71 72 73 73 74 75 76 76 76 76 76 77 78 79 79 79 80 81 83 85 87 89 90 89 89 88 88 88 87 86 86 86 87 87 88 90 91 91 92 93 95 97 99 101 103 104 105 105 104 103 104 105 106 107 109 110 112 114 115 117 119 121 124 126 129 131 134 136 139 142 142 138 135 132 130 126 124 122 121 121 120 119 119 118
72 72 72 73 73 73 74 75 76 76 75 75 76 78 79 80 81 82 84 85 88 90 91 91 91 90 90 90 91 91 89 88 88 89 89 90 91 92 93 94 95 96 98 101 103 105 107 108 108 107 107 107 108 109 110 111 113 115 116 118 120 122 124 126 129 132 135 137 140 143 144 142 139 136 134 131 128 125 123 122 122 121 120 120 119
71 71 71 72 73 73 74 75 76 76 76 77 78 79 80 81 82 85 87 89 90 92 93 93 93 93 94 95 95 94 92 91 91 91 91 92 93 94 95 96 97 98 100 102 105 107 109 110 110 110 109 109 110 111 112 114 115 117 119 121 123 125 127 130 132 135 138 140 143 145 145 142 139 137 135 132 129 126 124 123 122 122 121 120 119
73 73 73 73 73 74 75 76 77 78 79 79 80 81 83 84 86 88 89 91 93 95 96 96 96 96 97 97 97 95 93 93 93 92 92 93 95 96 97 98 99 101 102 105 107 109 111 112 113 112 112 112 112 113 115 116 118 120 121 123 125 128 130 132 135 138 141 143 146 146 145 142 140 138 135 132 130 127 125 124 123 122 121 120 119
74 74 74 74 74 75 76 78 80 81 82 83 83 85 86 87 89 90 91 93 95 97 98 97 97 98 98 98 98 96 95 95 94 94 94 95 97 98 100 101 102 103 105 107 108 110 113 115 115 114 114 114 114 115 117 118 120 122 124 126 128 130 133 135 138 141 144 146 147 146 144 142 140 138 135 133 130 128 126 124 123 122 121 120 119
76 76 76 76 77 78 79 81 83 84 85 86 87 87 88 89 91 93 94 95 97 98 99 100 100 101 101 101 100 99 98 98 98 97 97 98 99 100 101 102 104 106 108 109 110 112 116 118 118 117 116 116 117 118 119 121 123 125 127 129 131 134 136 139 142 145 147 148 148 146 144 142 140 138 135 133 130 128 126 124 123 121 121 120 120
78 77 76 77 78 80 82 83 85 86 88 89 89 90 92 94 95 96 96 97 98 101 102 102 102 102 102 102 102 101 102 102 102 101 101 101 101 102 103 104 105 107 109 110 112 115 119 121 121 120 119 119 119 121 122 124 126 128 130 132 135 137 140 143 146 148 149 149 147 146 144 143 140 137 135 132 130 127 125 123 122 121 121 121 122
80 78 77 78 81 83 85 87 88 90 92 92 93 95 97 99 99 99 99 100 102 105 105 103 102 102 102 103 103 104 104 104 104 104 104 104 104 104 105 106 107 108 109 111 115 119 122 123 122 121 121 121 122 124 125 127 129 132 134 136 138 141 143 146 149 150 150 148 146 145 145 143 140 137 134 132 129 126 124 122 121 121 121 122 123
86 84 81 81 82 85 87 89 92 94 96 97 99 101 103 104 104 103 103 104 106 107 105 103 103 104 104 105 105 106 107 107 106 106 106 106 107 107 107 108 109 110 111 114 118 122 124 124 123 123 123 124 125 127 129 131 133 135 137 139 141 144 147 149 151 151 149 147 146 146 145 143 140 137 133 130 127 124 123 122 122 122 123 123 124
93 91 88 87 87 89 91 93 96 99 101 103 104 105 106 106 106 105 106 107 108 107 105 106 106 107 107 107 109 110 110 110 110 109 110 110 109 109 109 110 111 112 115 118 122 125 126 125 125 125 126 127 129 131 133 135 137 139 141 142 145 148 150 152 151 150 148 147 147 146 145 142 139 135 131 128 125 123 122 122 123 123 124 125 126
96 94 93 92 92 94 95 97 99 102 104 105 106 106 106 106 106 107 109 110 110 111 111 111 110 109 110 112 113 114 113 113 113 113 113 112 112 111 112 112 114 116 118 122 125 127 128 127 128 128 129 131 132 134 136 139 141 142 144 146 149 152 153 152 150 149 148 148 147 147 145 141 137 132 128 126 124 123 123 123 124 124 125 125 126
97 95 94 94 94 96 98 100 102 103 104 105 106 106 107 108 110 112 114 115 116 115 115 113 112 113 114 115 115 115 115 115 115 115 115 114 114 114 115 116 117 119 122 126 128 129 129 130 130 131 133 134 136 138 141 143 144 146 149 152 154 154 153 151 150 150 149 149 148 146 143 138 133 129 127 125 124 124 124 124 124 125 125 125 123
99 98 96 96 97 99 101 103 104 105 106 107 107 108 110 112 115 117 118 119 119 118 117 116 116 116 116 116 116 115 115 116 116 116 116 117 117 117 118 119 121 123 126 129 130 131 131 132 133 135 136 138 140 143 145 147 148 151 155 156 156 154 153 152 152 151 150 150 148 145 140 134 130 128 126 125 125 124 124 124 124 125 124 122 119
101 100 98 97 98 100 103 105 106 107 109 110 112 114 116 118 119 120 121 122 122 121 119 119 118 117 117 116 116 117 117 118 118 118 119 120 120 120 121 122 124 127 129 131 132 133 134 135 137 138 140 142 145 147 149 151 154 157 159 158 156 154 154 154 153 152 151 150 147 142 136 132 129 128 127 126 126 125 125 125 124 123 121 118 114
105 105 103 101 100 101 104 107 110 113 114 116 118 119 121 122 123 125 126 126 124 121 119 118 117 117 117 117 118 118 119 120 120 121 122 122 123 124 125 126 128 130 132 133 134 136 137 139 141 142 144 147 149 151 153 155 159 160 160 158 157 156 156 155 153 153 151 149 143 138 134 131 130 128 128 127 127 126 126 125 123 120 116 112 108
113 112 111 109 107 107 110 113 116 118 119 121 122 123 124 126 127 128 128 125 122 120 118 117 117 117 118 119 120 120 121 121 122 123 124 125 126 126 128 129 130 132 134 136 137 139 141 143 145 147 149 152 153 155 157 160 162 161 160 159 158 157 156 155 154 153 150 145 140 136 133 132 131 130 129 129 128 127 125 123 120 116 112 108 104
116 115 115 115 115 115 116 118 120 122 124 126 127 128 130 130 130 127 124 121 119 118 117 118 119 120 121 121 121 122 123 124 125 125 126 127 128 129 131 132 133 135 137 139 141 143 145 147 149 152 154 155 157 159 161 163 162 161 160 159 159 157 156 155 153 150 146 141 137 135 134 134 133 132 131 130 129 127 124 120 116 112 108 104 100
114 117 119 120 120 121 121 122 123 124 126 128 129 130 130 128 125 122 120 118 118 118 120 121 122 123 123 123 123 124 125 126 127 128 129 130 131 132 133 135 136 138 140 142 144 147 149 151 153 155 157 159 160 162 163 163 163 162 161 160 158 157 155 154 151 147 142 139 137 136 135 135 134 134 133 131 129 126 121 117 112 108 104 100 97
Wind_Direction
273 274 275 276 277 278 278 280 280 281 282 282 283 283 284 285 285 286 286 286 287 288 288 289 290 291 292 293 293 294 295 295 296 297 297 298 299 300 301 301 302 302 303 303 303 304 304 305 305 305 306 306 306 305 305 305 305 305 305 306 306 307 307 307 307 306 306 306 307 307 308 309 309 309 309 309 309 308 308 309 310 311 312 314 315
272 273 274 275 276 277 279 280 280 281 282 283 283 284 285 286 286 287 287 287 288 289 290 291 292 292 293 294 294 295 296 296 297 298 299 299 300 301 301 302 302 302 303 303 303 304 305 305 306 307 307 307 306 306 306 306 306 306 307 307 308 308 307 307 307 307 307 307 308 309 309 309 309 309 309 309 309 309 310 311 312 312 314 315 315
272 273 274 275 276 278 279 279 281 282 282 283 284 285 285 286 287 287 288 288 289 290 291 292 293 294 294 295 295 296 297 297 298 299 299 300 300 301 301 302 302 303 303 304 305 305 306 307 307 308 308 307 307 307 307 307 307 307 308 308 308 307 307 307 307 307 308 309 309 310 310 310 310 309 309 309 310 311 312 313 313 314 315 316 316
272 274 275 276 277 278 279 280 281 282 282 283 284 285 286 287 287 288 288 289 290 291 292 293 294 294 295 295 296 296 297 298 298 299 300 300 301 301 302 302 303 304 305 306 307 307 307 308 308 308 308 307 307 307 307 307 307 307 307 307 307 307 307 307 308 309 309 310 310 310 310 311 311 311 311 311 312 313 314 314 315 315 316 316 315
272 273 274 276 277 278 279 280 281 282 283 284 285 286 286 287 287 288 289 290 291 292 293 293 294 294 295 295 296 297 297 298 299 299 300 300 301 302 302 303 304 305 306 307 307 307 308 308 308 308 307 307 307 307 307 307 307 307 307 307 307 307 308 308 309 310 310 311 311 311 312 312 312 312 312 313 314 315 316 316 316 316 315 315 314
272 273 275 276 277 278 280 281 282 282 283 284 285 286 287 287 288 289 290 291 291 292 292 293 293 294 295 296 297 297 298 298 299 299 300 301 302 303 304 305 306 306 307 307 307 307 308 308 308 308 307 307 307 307 307 307 307 306 306 306 307 308 309 310 310 311 312 312 312 313 313 314 314 314 315 315 315 316 316 315 315 315 314 313 312
273 274 275 276 278 279 280 281 281 282 283 284 285 286 287 288 289 289 290 291 291 292 292 293 294 295 296 297 297 298 298 298 299 300 301 302 303 304 305 305 306 306 306 307 307 308 308 308 308 308 308 308 307 307 307 306 306 306 306 307 308 309 310 311 311 312 312 313 314 315 315 316 316 316 317 316 316 316 315 314 314 313 312 312 312
273 274 276 277 278 279 280 281 281 283 284 285 286 287 288 289 289 290 291 291 292 292 293 294 295 296 296 297 297 297 298 299 300 301 302 303 303 304 304 305 305 306 307 307 307 307 307 307 308 308 307 307 307 306 306 306 306 306 307 308 309 309 310 311 312 313 314 315 316 317 318 318 318 318 317 316 316 315 314 313 312 312 312 313 314
274 276 277 278 279 280 281 281 283 284 285 286 287 288 288 289 290 290 290 291 292 293 294 295 295 296 296 297 297 298 299 300 300 301 301 302 303 304 305 305 306 306 307 307 307 307 307 307 307 307 307 307 306 306 306 306 306 306 307 307 308 309 310 312 313 315 316 318 319 320 320 319 319 318 316 315 315 314 314 314 314 314 315 315 315
274 275 277 278 279 280 281 282 283 284 285 286 287 287 288 289 289 289 290 291 292 293 294 294 295 296 296 297 298 298 298 299 299 300 301 302 303 304 305 305 305 305 306 306 306 307 307 307 307 307 306 306 305 305 305 305 305 306 307 308 310 311 313 314 316 317 319 320 321 321 320 319 318 317 316 316 316 316 316 317 316 316 315 314 313
273 274 276 277 278 279 280 281 282 283 284 285 286 286 287 287 288 288 289 291 292 293 293 294 295 296 296 296 297 297 298 298 299 301 302 303 303 303 304 304 304 305 306 306 306 307 307 307 307 306 304 304 303 304 305 306 307 308 310 311 312 314 315 317 318 319 320 321 322 322 321 320 320 320 319 319 319 318 317 316 315 314 313 312 312
272 274 275 276 277 278 279 280 281 282 283 284 285 285 286 286 287 288 289 290 291 292 293 294 294 295 295 295 296 297 298 299 300 301 301 302 302 302 303 303 304 305 306 306 306 306 306 305 304 303 303 303 304 305 307 308 310 311 312 313 314 315 316 317 319 320 322 323 323 323 323 323 323 322 321 321 319 317 316 314 313 312 312 311 311
272 273 274 275 276 277 279 280 281 281 282 283 284 285 285 286 287 288 289 290 291 292 292 293 293 294 295 295 296 297 298 299 299 300 301 301 302 302 303 304 305 306 306 305 305 305 304 303 302 301 302 303 305 306 308 309 311 312 313 314 315 316 317 318 320 321 322 323 324 325 325 325 324 323 322 321 319 317 316 314 312 311 310 310 309
271 272 273 274 276 277 278 279 280 281 282 283 283 284 285 286 287 288 289 290 290 291 292 292 293 294 294 295 296 297 298 298 299 300 301 301 302 303 304 305 305 305 305 304 304 303 302 301 301 301 302 303 305 306 308 310 311 312 313 314 315 316 317 318 319 320 322 323 325 326 327 327 326 324 323 322 319 318 316 314 312 311 309 308 307
270 271 272 274 275 276 277 278 279 280 281 282 283 284 284 286 287 288 288 289 290 290 291 292 293 293 294 295 296 297 298 298 299 300 301 301 302 303 304 305 305 304 303 303 302 301 301 300 301 302 303 305 306 308 309 310 311 312 312 313 314 315 315 316 318 319 321 323 325 326 327 328 328 327 325 323 321 319 317 314 312 310 309 307 306
269 271 272 273 274 275 276 277 278 279 280 281 282 283 284 285 286 287 288 288 289 290 291 291 292 293 294 295 296 297 298 299 299 300 301 303 304 304 305 304 303 302 302 302 301 301 300 301 301 303 304 305 307 308 308 308 309 309 310 311 313 314 314 316 317 319 320 322 324 326 327 329 329 329 328 327 324 321 318 315 313 311 308 306 305
269 270 271 273 274 275 276 277 277 278 280 281 282 283 284 285 286 286 287 288 289 290 291 291 292 293 294 295 296 297 298 299 300 302 303 303 304 304 303 302 301 300 300 300 300 300 300 301 302 303 304 305 306 306 305 306 306 307 308 309 311 312 314 315 317 318 320 322 324 326 328 329 330 330 330 330 328 324 321 317 314 312 309 306 305
268 270 271 272 273 274 275 276 277 278 280 281 281 282 283 284 285 286 287 288 289 290 291 291 292 293 295 296 297 298 299 300 301 302 303 303 303 302 301 300 299 299 299 300 300 301 301 302 303 304 305 305 305 304 303 303 304 305 306 308 310 312 314 316 318 320 322 324 326 327 329 330 330 331 330 331 330 327 324 321 317 313 310 307 305
268 270 271 272 273 273 274 275 277 278 279 280 281 282 283 284 285 286 287 288 289 290 290 291 292 294 295 296 297 298 299 301 302 302 302 302 302 301 301 300 300 301 301 302 302 303 303 304 304 305 305 304 304 303 302 302 303 304 305 307 310 312 315 317 319 321 323 325 327 328 328 329 329 329 330 330 330 329 327 324 320 316 312 309 306
269 270 271 272 272 273 274 276 277 278 279 280 281 282 283 284 285 286 287 288 288 289 290 291 293 294 295 296 297 299 300 301 301 302 301 301 302 302 302 302 302 303 303 303 302 302 303 303 303 303 302 302 301 301 301 301 302 303 305 307 310 313 316 318 321 322 324 325 326 326 327 327 327 328 328 328 329 329 328 326 323 319 315 312 309
270 270 271 272 272 273 274 276 277 278 279 280 281 282 283 284 285 286 287 287 288 289 291 292 293 294 295 297 299 299 300 300 300 300 301 301 301 302 302 302 301 301 300 300 299 299 299 300 300 300 300 299 299 299 300 300 302 303 305 307 310 314 317 320 321 322 323 324 324 325 326 326 327 327 327 328 328 329 328 327 325 322 319 316 312
269 270 271 272 273 273 274 275 276 277 278 279 280 281 282 283 284 285 286 287 289 290 291 292 294 295 296 298 299 299 299 300 300 300 301 301 300 300 300 300 300 299 298 297 296 297 298 298 298 298 298 298 298 299 299 301 302 304 307 310 313 316 318 319 320 321 322 323 324 325 326 327 327 328 328 328 328 328 328 328 327 325 322 318 315
269 270 271 271 272 273 274 275 276 277 278 279 280 281 282 283 283 284 285 287 288 290 291 292 294 295 296 296 296 296 298 299 299 298 297 298 298 297 298 300 301 301 299 298 297 297 298 298 299 299 298 298 298 299 301 303 305 308 310 312 314 315 317 318 319 321 323 324 325 327 328 329 329 329 328 328 328 328 328 328 327 326 323 320 317
268 269 270 271 272 273 274 275 276 277 278 278 279 279 280 281 282 283 284 286 287 288 290 291 293 294 295 296 296 296 297 298 298 295 294 295 297 298 300 302 304 303 302 301 301 300 301 302 302 302 301 301 301 303 304 306 308 308 309 310 312 314 316 318 321 323 325 326 328 329 330 330 330 329 328 328 328 328 328 328 327 326 324 321 318
268 269 270 271 272 273 274 275 276 276 276 277 278 278 279 280 281 282 283 284 285 287 289 290 292 293 295 296 297 298 299 300 299 298 297 298 299 301 302 304 305 306 305 304 304 304 305 305 306 306 306 306 306 307 307 307 307 308 309 311 313 316 319 321 324 326 327 328 329 330 330 330 330 329 328 327 327 327 326 326 326 326 324 322 319
268 269 270 271 272 273 274 274 275 275 276 276 277 278 278 279 280 281 282 283 285 287 289 290 292 295 297 298 300 301 302 302 302 302 302 302 303 303 304 305 307 309 309 308 308 308 308 309 309 310 310 310 310 310 310 310 310 311 313 315 317 320 322 324 325 327 328 328 329 329 329 329 329 329 328 327 326 325 325 325 325 325 324 322 320
268 269 270 271 272 272 273 273 274 274 275 275 276 276 277 278 280 281 282 283 285 287 289 291 294 297 300 302 303 304 304 304 305 304 304 304 305 306 307 308 310 311 312 312 311 311 311 311 312 312 313 313 313 313 313 314 315 315 317 319 321 322 324 325 326 327 328 328 328 328 328 328 328 328 327 326 325 324 324 324 324 324 323 322 320
268 269 269 270 271 271 272 272 273 273 273 274 274 275 276 278 279 281 282 284 287 289 292 294 298 300 302 304 305 306 306 306 306 305 305 305 306 308 309 310 311 312 313 313 314 314 313 313 313 313 314 314 315 315 316 316 317 318 319 321 322 323 325 326 326 327 327 327 327 327 327 327 327 327 326 325 324 323 323 323 323 322 322 321 319
267 268 269 269 270 270 270 271 271 271 272 273 273 274 275 276 277 280 283 287 290 292 295 298 301 303 304 305 306 306 306 305 305 305 305 305 307 308 309 310 311 312 314 314 315 315 315 314 313 313 314 314 315 316 316 317 318 319 320 322 323 324 325 326 326 326 326 326 326 326 326 326 326 326 326 325 323 323 322 322 322 321 320 320 319
268 269 269 269 269 269 269 270 270 271 271 272 272 273 274 276 278 282 287 291 294 296 298 301 303 304 304 305 305 305 304 304 304 304 304 304 305 306 307 308 309 311 312 313 314 315 315 314 313 313 313 313 314 315 316 318 319 320 321 322 323 324 325 325 325 325 325 325 325 325 325 325 325 325 325 324 323 322 321 321 320 320 319 319 319
270 270 269 269 268 268 268 269 269 270 270 271 272 273 276 279 283 287 292 295 296 297 299 301 302 302 302 303 304 303 302 302 302 301 301 301 302 303 304 305 306 308 310 311 312 313 314 313 312 312 312 312 313 314 316 317 319 320 321 322 323 323 324 324 324 324 324 324 324 324 324 324 324 323 323 323 322 321 320 320 319 319 319 319 318
269 268 267 267 267 267 267 268 269 271 272 273 275 277 280 284 287 291 294 295 296 297 298 299 300 300 301 302 303 302 301 301 300 299 299 299 300 301 301 302 303 305 307 309 311 312 312 312 312 311 311 311 312 313 315 316 317 319 320 321 322 322 323 323 323 323 323 323 323 322 322 323 323 322 322 322 321 320 320 319 319 319 319 318 318
265 264 264 264 265 266 268 270 271 273 275 277 280 282 285 287 289 291 293 295 296 297 298 298 299 299 300 301 302 301 300 300 299 298 298 298 299 299 300 300 302 303 305 308 310 311 311 311 311 310 310 311 312 313 314 315 316 318 319 320 321 321 321 321 321 321 321 321 321 321 321 322 321 321 321 321 320 320 319 319 319 318 318 317 316
261 261 262 263 265 268 269 271 272 274 277 279 282 283 285 287 288 290 292 294 296 297 298 298 298 299 300 300 300 300 299 298 298 297 297 297 297 297 298 299 300 302 304 306 308 310 310 310 310 310 310 310 311 312 313 314 315 317 318 319 319 320 320 320 320 320 320 320 320 320 320 321 321 320 320 320 320 320 319 318 317 317 316 315 314
260 261 263 266 268 269 269 270 271 274 276 279 280 281 282 283 286 289 291 293 295 297 298 298 298 299 299 299 299 299 297 297 296 296 295 295 295 295 296 297 299 301 303 305 306 308 309 309 309 309 309 310 310 311 312 313 314 315 316 317 318 318 318 318 319 319 319 319 319 319 319 320 320 320 320 320 320 319 318 317 316 315 315 314 313
260 262 265 267 268 268 268 269 270 272 274 276 277 278 279 281 284 288 290 293 295 297 298 297 297 297 297 298 299 298 296 296 296 296 295 294 294 294 295 296 298 299 301 303 304 306 308 308 309 308 308 309 309 310 311 312 313 314 315 316 317 317 317 317 318 318 318 318 318 318 319 319 320 320 320 319 319 318 317 316 315 314 314 313 312
260 263 266 268 268 268 268 268 270 272 274 275 276 276 277 280 283 287 289 291 294 296 297 296 295 295 296 297 298 297 296 296 296 296 295 295 294 294 295 295 296 298 299 301 302 304 306 307 308 308 308 308 309 309 310 311 312 313 314 315 316 316 316 316 316 317 317 317 317 317 318 319 319 319 319 318 317 316 316 315 314 314 313 312 311
260 263 267 269 269 268 268 269 270 272 273 273 274 275 277 279 283 286 288 291 293 296 296 295 294 295 296 297 297 296 295 296 296 296 296 295 294 294 294 294 295 296 298 299 300 302 304 306 306 307 307 308 308 309 310 311 312 313 314 314 315 315 315 315 315 315 315 315 316 317 318 319 319 318 317 317 316 315 315 314 313 313 312 311 311
261 265 267 269 269 269 269 270 270 271 271 271 272 273 276 279 282 285 287 289 292 295 295 295 294 295 295 296 297 296 296 296 297 297 297 296 295 294 293 294 294 296 297 297 298 300 303 305 305 306 307 307 308 309 310 311 312 313 313 313 314 314 314 314 314 314 314 315 316 317 318 318 318 317 316 316 315 314 314 313 313 312 311 311 311
262 265 267 268 268 268 268 268 269 269 270 270 271 271 275 278 281 283 285 288 291 294 294 294 293 294 294 295 295 296 296 296 296 296 296 296 296 295 294 294 295 295 296 296 297 299 302 304 305 305 306 307 308 309 310 311 312 312 313 313 313 313 313 313 313 313 314 314 316 317 317 317 317 316 315 315 314 313 313 312 312 311 311 311 311
261 263 265 266 266 266 267 267 267 268 269 269 270 272 275 278 280 282 284 286 290 293 293 292 292 292 293 293 294 294 294 294 295 295 295 296 295 295 295 295 294 294 294 295 297 299 301 303 304 305 306 307 309 310 310 311 312 312 312 312 312 312 312 312 312 312 313 314 316 316 317 316 316 315 314 314 313 313 312 312 311 311 311 311 311
258 261 263 264 265 265 265 265 266 267 268 270 272 273 276 277 279 280 282 285 289 291 291 290 290 291 291 292 292 293 293 293 294 294 295 295 295 295 294 294 293 293 294 295 297 299 301 303 304 305 306 308 309 310 310 311 311 311 311 311 311 311 311 311 311 312 314 315 316 316 316 315 315 314 313 313 312 312 312 312 312 311 311 311 311
259 261 263 265 267 267 267 267 267 268 269 271 273 274 276 277 278 279 282 286 288 289 289 289 289 290 290 290 291 292 293 293 294 294 295 295 295 295 294 293 293 293 294 295 297 299 301 302 304 305 307 308 308 309 310 310 310 310 310 310 310 310 310 311 312 313 314 315 315 315 315 314 313 313 312 312 312 312 312 312 311 311 311 311 310
261 263 265 267 269 269 267 267 267 269 270 271 273 274 275 276 277 280 283 286 287 288 288 288 288 289 290 291 292 292 293 293 294 295 295 295 295 295 294 294 294 294 294 295 297 299 301 302 304 305 306 307 308 309 309 309 310 310 309 309 309 310 310 311 313 313 314 315 315 315 314 313 312 312 312 312 312 312 312 311 311 311 311 311 310
262 264 266 268 269 267 266 265 266 268 270 271 272 273 275 277 279 281 283 285 286 287 287 287 287 288 289 291 292 292 292 293 294 294 294 295 294 294 294 293 293 293 294 296 297 299 301 302 304 305 306 307 307 308 308 309 309 309 309 309 309 310 311 312 313 314 314 314 314 313 313 312 312 312 312 312 312 312 311 311 311 311 311 311 310
262 264 266 268 268 266 265 265 266 268 270 272 273 275 277 279 280 282 283 284 285 286 286 286 286 288 289 290 291 292 292 292 293 293 293 294 294 293 293 293 293 293 294 296 298 299 301 302 304 304 305 306 307 307 308 308 308 308 309 309 310 311 312 313 313 313 314 314 313 312 312 312 312 312 312 312 312 311 311 311 311 311 311 310 309
263 265 266 268 267 265 264 264 266 268 270 272 273 275 277 279 280 281 282 283 284 284 284 285 286 288 289 290 290 290 291 291 292 292 293 293 293 293 293 293 293 294 295 297 299 300 301 302 303 304 305 306 306 307 307 307 308 308 309 310 311 312 312 313 313 313 313 313 312 312 311 312 312 312 312 312 312 312 312 312 312 311 311 310 309
264 265 266 266 265 264 264 265 267 268 270 272 273 275 277 278 280 281 282 283 283 283 284 285 286 287 288 289 289 289 290 290 291 292 293 293 293 294 294 294 295 295 297 298 299 300 301 302 303 304 305 305 306 306 306 307 308 309 310 311 312 312 312 312 313 313 312 312 312 311 312 312 312 312 312 312 312 312 312 312 312 311 311 310 309
264 265 264 264 264 264 264 266 267 269 271 273 275 276 277 278 279 280 281 282 282 283 284 285 286 287 287 287 288 289 289 290 291 292 293 293 294 294 295 295 296 297 298 299 300 301 301 302 303 304 304 305 305 306 307 307 309 309 310 311 311 312 312 312 312 312 312 311 311 312 312 312 312 312 312 312 313 313 313 312 312 311 311 310 310
263 264 264 263 264 264 265 267 269 271 273 274 275 276 277 278 279 280 280 281 282 283 284 284 285 286 286 287 288 288 289 290 291 292 293 293 294 295 295 296 297 297 298 299 300 301 301 302 303 304 304 305 305 306 307 308 309 309 310 310 311 311 311 311 311 311 311 311 311 312 312 312 312 312 313 313 313 313 313 312 312 311 311 310 310
262 262 262 263 264 265 266 268 270 271 272 273 274 275 277 278 279 279 280 281 281 282 282 283 285 285 286 287 288 289 290 291 292 292 293 293 294 295 295 296 297 297 298 299 300 300 301 302 303 303 304 305 305 306 307 308 308 309 310 310 310 310 310 311 311 311 311 311 311 312 312 312 313 313 313 313 313 313 312 312 312 311 311 311 310
Height
10761 10761 10761 10761 10760 10759 10758 10757 10757 10755 10754 10752 10751 10749 10747 10746 10744 10742 10740 10737 10735 10734 10731 10728 10727 10725 10722 10720 10716 10713 10710 10707 10703 10701 10698 10694 10690 10686 10681 10677 10673 10669 10664 10659 10653 10648 10643 10639 10634 10629 10623 10615 10605 10596 10589 10583 10577 10570 10563 10558 10551 10544 10537 10531 10524 10518 10511 10504 10497 10492 10486 10480 10474 10467 10461 10456 10450 10445 10440 10435 10430 10425 10420 10416 10411
10755 10754 10754 10754 10753 10752 10751 10750 10749 10748 10746 10745 10743 10741 10739 10738 10736 10734 10731 10728 10726 10725 10722 10720 10718 10716 10714 10711 10707 10704 10701 10698 10694 10692 10689 10685 10682 10677 10673 10668 10663 10659 10655 10650 10645 10639 10634 10629 10623 10618 10612 10604 10594 10586 10578 10572 10566 10559 10551 10546 10540 10533 10527 10520 10513 10507 10500 10494 10487 10481 10475 10469 10464 10457 10451 10446 10440 10436 10431 10426 10422 10416 10412 10408 10403
10748 10748 10747 10746 10745 10745 10744 10742 10741 10740 10738 10736 10735 10733 10732 10730 10728 10726 10723 10720 10718 10716 10714 10712 10710 10707 10705 10701 10698 10695 10692 10689 10685 10682 10679 10676 10673 10669 10664 10659 10654 10650 10646 10641 10635 10629 10623 10618 10612 10606 10600 10591 10582 10575 10566 10557 10552 10547 10541 10535 10529 10523 10517 10510 10503 10496 10490 10484 10477 10471 10465 10459 10454 10448 10442 10436 10431 10427 10423 10418 10413 10408 10404 10400 10396
10740 10740 10739 10738 10738 10737 10736 10735 10734 10733 10730 10729 10728 10725 10724 10722 10719 10717 10715 10712 10710 10707 10705 10703 10701 10698 10696 10692 10689 10686 10683 10680 10677 10673 10670 10667 10664 10660 10655 10650 10645 10640 10636 10630 10624 10618 10612 10606 10601 10596 10589 10580 10572 10566 10557 10547 10540 10536 10531 10525 10519 10513 10507 10500 10493 10486 10480 10474 10468 10462 10456 10450 10444 10438 10433 10428 10423 10419 10415 10410 10405 10401 10396 10393 10389
10732 10732 10731 10730 10730 10729 10728 10728 10726 10725 10723 10721 10720 10717 10716 10714 10711 10709 10707 10704 10702 10700 10697 10695 10693 10690 10687 10684 10681 10677 10674 10671 10667 10664 10660 10657 10654 10650 10645 10640 10635 10630 10625 10619 10613 10607 10601 10596 10591 10586 10580 10572 10564 10558 10550 10541 10533 10526 10520 10515 10509 10503 10497 10490 10483 10477 10470 10464 10459 10453 10447 10441 10436 10430 10424 10420 10415 10411 10407 10402 10398 10393 10389 10385 10381
10723 10723 10723 10722 10722 10721 10720 10719 10718 10716 10715 10713 10712 10710 10708 10705 10703 10701 10699 10697 10695 10692 10690 10687 10684 10682 10678 10675 10672 10668 10665 10661 10657 10654 10650 10647 10643 10639 10634 10629 10624 10619 10613 10608 10602 10596 10591 10585 10579 10574 10567 10559 10553 10547 10540 10533 10526 10519 10512 10506 10500 10493 10487 10480 10474 10468 10462 10457 10451 10445 10440 10434 10428 10422 10417 10412 10408 10403 10399 10395 10391 10386 10382 10377 10373
10715 10715 10715 10714 10713 10713 10712 10710 10709 10708 10706 10705 10703 10701 10699 10697 10695 10693 10691 10689 10686 10683 10681 10678 10675 10672 10669 10666 10662 10658 10655 10651 10647 10644 10640 10636 10632 10628 10623 10618 10613 10609 10603 10597 10591 10584 10579 10572 10566 10561 10554 10546 10540 10535 10530 10524 10517 10510 10503 10497 10490 10484 10478 10472 10467 10462 10456 10451 10445 10439 10433 10427 10421 10415 10410 10405 10400 10396 10392 10388 10384 10380 10375 10369 10364
10706 10706 10706 10706 10705 10704 10703 10701 10700 10699 10697 10696 10694 10692 10690 10687 10685 10683 10681 10679 10676 10674 10672 10669 10666 10663 10659 10656 10653 10649 10645 10641 10637 10634 10630 10626 10622 10618 10613 10608 10602 10597 10591 10585 10579 10572 10566 10561 10555 10549 10543 10536 10530 10525 10520 10514 10507 10501 10495 10489 10483 10477 10471 10466 10461 10456 10450 10444 10438 10432 10426 10420 10414 10408 10402 10397 10392 10388 10384 10380 10377 10372 10367 10361 10355
10697 10697 10696 10696 10695 10694 10693 10691 10691 10690 10688 10687 10685 10682 10680 10678 10676 10674 10671 10669 10667 10665 10663 10659 10656 10653 10649 10646 10642 10638 10635 10631 10627 10624 10620 10616 10611 10607 10602 10596 10591 10586 10581 10575 10568 10562 10556 10550 10544 10538 10531 10525 10519 10515 10510 10504 10499 10494 10488 10482 10476 10470 10464 10459 10453 10448 10442 10436 10430 10424 10419 10412 10406 10401 10395 10390 10386 10382 10377 10372 10367 10362 10357 10351 10346
10688 10688 10687 10687 10685 10684 10683 10682 10682 10681 10679 10678 10675 10673 10671 10669 10667 10664 10662 10660 10658 10656 10653 10650 10646 10643 10639 10636 10632 10628 10625 10621 10617 10613 10609 10604 10599 10595 10590 10585 10581 10576 10571 10565 10558 10552 10545 10539 10532 10526 10519 10513 10509 10506 10502 10495 10490 10485 10479 10474 10468 10462 10456 10450 10444 10439 10433 10428 10423 10417 10412 10405 10400 10395 10389 10383 10379 10373 10367 10362 10357 10352 10347 10343 10338
10680 10680 10679 10678 10677 10676 10675 10675 10674 10673 10671 10669 10667 10664 10662 10660 10657 10655 10653 10651 10649 10646 10643 10640 10636 10632 10629 10625 10621 10618 10614 10611 10607 10602 10598 10594 10589 10584 10580 10576 10571 10566 10560 10554 10547 10541 10535 10529 10522 10516 10510 10503 10499 10496 10492 10485 10480 10475 10470 10465 10459 10453 10448 10442 10436 10431 10425 10421 10416 10410 10404 10399 10393 10387 10381 10375 10369 10363 10358 10352 10348 10344 10339 10335 10330
10672 10672 10671 10670 10669 10668 10668 10667 10666 10664 10662 10660 10658 10656 10653 10650 10648 10646 10644 10642 10639 10636 10633 10629 10626 10622 10619 10615 10611 10608 10604 10600 10596 10592 10588 10584 10579 10575 10570 10565 10560 10555 10549 10543 10537 10531 10525 10519 10513 10507 10501 10495 10488 10484 10481 10475 10470 10466 10461 10455 10450 10444 10439 10433 10427 10423 10417 10413 10408 10402 10396 10391 10385 10378 10372 10367 10361 10356 10351 10346 10341 10336 10332 10327 10322
10663 10662 10662 10661 10660 10660 10659 10658 10657 10655 10653 10650 10648 10646 10643 10640 10638 10636 10635 10632 10629 10626 10622 10619 10615 10612 10608 10605 10601 10598 10594 10590 10586 10583 10578 10574 10569 10564 10559 10554 10549 10544 10538 10533 10528 10522 10516 10510 10504 10498 10493 10488 10481 10476 10472 10467 10462 10457 10452 10446 10441 10435 10430 10425 10420 10415 10410 10405 10400 10394 10388 10383 10377 10371 10365 10360 10355 10349 10344 10339 10333 10329 10324 10319 10313
10653 10652 10652 10652 10652 10652 10651 10649 10648 10646 10643 10641 10639 10636 10632 10630 10629 10627 10625 10622 10619 10615 10612 10609 10605 10602 10598 10595 10591 10587 10583 10579 10576 10572 10567 10562 10557 10552 10547 10542 10538 10532 10527 10522 10518 10512 10507 10500 10495 10489 10484 10479 10474 10468 10463 10458 10453 10448 10443 10438 10434 10429 10424 10419 10414 10409 10403 10398 10393 10387 10381 10375 10371 10365 10359 10353 10348 10342 10337 10331 10326 10321 10317 10312 10306
10643 10643 10643 10643 10643 10643 10641 10640 10638 10636 10634 10631 10629 10625 10623 10621 10620 10617 10614 10612 10609 10606 10602 10599 10596 10592 10589 10585 10581 10577 10572 10568 10565 10560 10556 10551 10545 10541 10536 10531 10525 10520 10515 10511 10507 10502 10497 10491 10486 10480 10475 10469 10465 10460 10454 10449 10445 10440 10436 10431 10427 10422 10417 10413 10408 10403 10397 10392 10386 10381 10375 10369 10364 10358 10351 10346 10340 10334 10329 10324 10318 10314 10309 10303 10297
10633 10633 10633 10634 10634 10633 10631 10630 10628 10626 10624 10622 10619 10616 10614 10612 10610 10607 10604 10602 10599 10595 10592 10589 10586 10582 10578 10574 10570 10566 10562 10557 10553 10549 10544 10538 10533 10529 10524 10519 10513 10508 10503 10500 10496 10492 10488 10482 10477 10472 10467 10462 10458 10453 10448 10444 10439 10434 10429 10424 10419 10414 10409 10405 10401 10396 10391 10386 10380 10374 10368 10361 10356 10350 10344 10338 10332 10326 10321 10315 10309 10305 10300 10294 10288
10623 10623 10624 10624 10623 10623 10622 10620 10618 10616 10614 10612 10609 10606 10604 10603 10600 10597 10594 10592 10588 10585 10581 10578 10575 10571 10568 10564 10559 10555 10550 10546 10542 10537 10532 10527 10522 10517 10513 10508 10503 10498 10494 10490 10487 10483 10479 10474 10470 10465 10461 10457 10452 10448 10443 10439 10434 10429 10424 10418 10412 10407 10401 10397 10393 10388 10383 10378 10372 10366 10360 10354 10348 10342 10336 10330 10324 10317 10312 10306 10300 10295 10290 10284 10278
10613 10614 10615 10615 10614 10613 10611 10609 10607 10606 10605 10602 10599 10597 10595 10592 10590 10587 10584 10581 10577 10574 10570 10567 10564 10561 10557 10553 10549 10543 10539 10534 10530 10526 10521 10516 10512 10507 10503 10499 10494 10490 10486 10482 10478 10475 10470 10467 10463 10459 10455 10450 10446 10442 10437 10432 10428 10422 10417 10412 10406 10399 10393 10389 10385 10379 10374 10369 10363 10358 10352 10346 10340 10334 10328 10322 10316 10309 10303 10297 10291 10286 10280 10273 10267
10603 10605 10606 10606 10604 10602 10600 10598 10598 10597 10595 10592 10589 10587 10584 10582 10580 10577 10573 10570 10566 10563 10559 10556 10553 10550 10547 10543 10538 10533 10529 10524 10520 10516 10511 10506 10502 10497 10493 10490 10486 10481 10477 10473 10469 10466 10462 10458 10455 10451 10447 10443 10439 10434 10430 10425 10420 10415 10410 10404 10398 10392 10385 10381 10376 10371 10366 10360 10355 10349 10344 10338 10332 10326 10320 10314 10309 10301 10294 10288 10281 10276 10269 10263 10256
10594 10596 10596 10595 10593 10591 10589 10588 10588 10587 10584 10582 10579 10576 10573 10572 10569 10566 10562 10558 10555 10552 10549 10546 10543 10540 10537 10533 10528 10524 10519 10515 10511 10507 10503 10498 10493 10489 10485 10481 10477 10473 10470 10466 10461 10458 10454 10450 10447 10443 10439 10435 10431 10427 10422 10417 10412 10407 10402 10397 10392 10385 10378 10373 10368 10363 10358 10353 10347 10341 10336 10330 10324 10318 10312 10306 10300 10294 10286 10279 10271 10265 10259 10252 10246
10584 10584 10584 10584 10582 10580 10579 10578 10578 10576 10574 10572 10569 10565 10563 10561 10559 10555 10550 10546 10543 10541 10539 10536 10532 10530 10526 10523 10519 10514 10510 10506 10502 10498 10495 10490 10486 10482 10478 10474 10471 10467 10463 10459 10455 10451 10447 10443 10440 10436 10431 10427 10422 10418 10414 10409 10404 10399 10394 10390 10384 10378 10372 10366 10361 10355 10350 10345 10339 10333 10327 10321 10315 10309 10303 10296 10290 10285 10278 10270 10262 10254 10247 10241 10235
10572 10573 10573 10572 10570 10568 10567 10567 10567 10565 10564 10562 10559 10555 10552 10551 10549 10545 10540 10535 10532 10530 10528 10525 10522 10519 10516 10513 10510 10505 10501 10497 10494 10490 10486 10483 10480 10476 10472 10468 10464 10460 10456 10452 10448 10445 10441 10436 10432 10428 10424 10419 10414 10410 10405 10401 10396 10391 10386 10381 10376 10370 10364 10358 10353 10347 10341 10336 10330 10324 10318 10311 10305 10298 10292 10285 10279 10273 10267 10260 10253 10245 10237 10230 10223
10560 10562 10561 10559 10558 10556 10556 10556 10556 10555 10553 10551 10548 10545 10542 10540 10537 10535 10531 10527 10523 10520 10518 10516 10513 10510 10507 10504 10502 10498 10494 10490 10486 10483 10479 10476 10472 10469 10464 10460 10456 10452 10448 10444 10440 10437 10433 10428 10424 10420 10416 10411 10407 10402 10397 10392 10387 10382 10377 10372 10367 10362 10356 10350 10344 10338 10332 10326 10319 10313 10307 10300 10294 10288 10281 10274 10267 10261 10256 10250 10244 10236 10229 10222 10214
10550 10550 10549 10547 10546 10545 10544 10545 10545 10544 10543 10540 10537 10534 10532 10529 10527 10524 10523 10520 10516 10512 10509 10507 10504 10501 10497 10494 10492 10489 10486 10482 10478 10475 10471 10467 10463 10459 10456 10452 10448 10444 10440 10436 10432 10428 10424 10419 10415 10411 10407 10403 10398 10393 10389 10384 10379 10374 10369 10364 10359 10353 10347 10340 10335 10329 10323 10316 10309 10303 10295 10288 10283 10277 10270 10263 10256 10250 10244 10239 10234 10228 10221 10214 10207
10539 10538 10536 10536 10535 10533 10534 10534 10533 10533 10531 10529 10526 10524 10521 10519 10516 10514 10513 10511 10508 10504 10501 10498 10495 10492 10488 10485 10482 10479 10476 10472 10468 10464 10460 10457 10453 10450 10446 10443 10439 10435 10431 10427 10423 10419 10415 10410 10406 10402 10398 10393 10389 10384 10380 10375 10371 10365 10360 10354 10349 10343 10336 10330 10324 10318 10312 10305 10299 10292 10285 10278 10272 10266 10259 10252 10245 10238 10232 10227 10223 10217 10210 10204 10198
10527 10525 10524 10525 10524 10523 10523 10522 10521 10521 10519 10517 10515 10512 10510 10508 10506 10504 10503 10501 10498 10495 10491 10488 10485 10482 10478 10475 10472 10469 10465 10462 10458 10454 10450 10446 10443 10439 10436 10432 10429 10425 10421 10417 10413 10409 10405 10401 10396 10392 10387 10383 10379 10374 10369 10365 10360 10355 10349 10344 10338 10332 10325 10319 10314 10308 10302 10296 10290 10283 10275 10268 10262 10255 10248 10242 10235 10228 10221 10215 10211 10205 10198 10192 10187
10514 10514 10513 10513 10513 10512 10511 10510 10509 10508 10506 10504 10503 10501 10499 10498 10495 10493 10492 10490 10488 10485 10481 10478 10475 10472 10469 10466 10462 10459 10455 10451 10448 10444 10440 10437 10433 10429 10425 10422 10418 10414 10410 10407 10403 10399 10395 10390 10386 10381 10377 10372 10367 10363 10358 10353 10348 10343 10338 10333 10327 10321 10315 10309 10303 10297 10292 10286 10280 10273 10266 10259 10253 10245 10238 10231 10224 10216 10209 10204 10198 10193 10186 10181 10177
10503 10503 10502 10502 10502 10500 10499 10498 10497 10495 10494 10493 10492 10490 10489 10488 10485 10483 10481 10479 10477 10474 10471 10467 10464 10461 10458 10455 10452 10449 10445 10441 10438 10435 10431 10427 10423 10419 10415 10412 10407 10404 10400 10396 10392 10388 10384 10380 10375 10371 10366 10361 10357 10352 10348 10343 10337 10332 10327 10322 10317 10310 10304 10298 10292 10287 10281 10275 10269 10263 10256 10249 10242 10235 10228 10220 10213 10204 10197 10192 10186 10181 10175 10170 10165
10490 10491 10490 10491 10490 10488 10487 10486 10485 10484 10483 10483 10481 10480 10479 10478 10476 10474 10471 10468 10466 10463 10460 10457 10454 10451 10448 10445 10442 10439 10435 10432 10428 10425 10421 10417 10413 10409 10406 10402 10398 10394 10389 10385 10382 10378 10374 10369 10365 10360 10356 10351 10346 10342 10337 10332 10326 10321 10315 10310 10304 10299 10293 10287 10281 10276 10270 10264 10258 10251 10245 10238 10231 10224 10217 10210 10202 10193 10186 10179 10173 10168 10163 10158 10153
10478 10478 10477 10477 10476 10475 10475 10474 10473 10473 10472 10472 10471 10470 10469 10467 10466 10464 10461 10458 10455 10452 10449 10446 10443 10441 10438 10435 10432 10429 10425 10422 10418 10414 10411 10407 10404 10400 10397 10393 10389 10384 10380 10376 10372 10368 10363 10359 10355 10350 10346 10340 10335 10331 10326 10320 10315 10309 10303 10298 10292 10287 10281 10276 10270 10264 10258 10252 10246 10240 10233 10227 10220 10213 10206 10199 10191 10183 10175 10168 10161 10154 10149 10144 10140
10465 10464 10464 10464 10463 10463 10463 10462 10462 10462 10462 10461 10461 10459 10458 10456 10454 10452 10449 10446 10443 10440 10438 10436 10433 10431 10428 10425 10422 10418 10415 10411 10408 10404 10401 10397 10394 10391 10387 10383 10379 10375 10371 10367 10363 10358 10354 10349 10345 10340 10335 10330 10325 10320 10315 10309 10304 10298 10292 10286 10279 10274 10269 10263 10258 10252 10247 10241 10235 10228 10222 10215 10208 10202 10194 10187 10180 10172 10164 10156 10148 10141 10135 10129 10125
10451 10451 10452 10452 10452 10452 10452 10452 10452 10451 10450 10450 10449 10447 10446 10444 10442 10440 10437 10435 10433 10430 10428 10426 10423 10420 10418 10415 10411 10408 10404 10401 10398 10394 10391 10387 10384 10380 10377 10373 10370 10365 10361 10357 10353 10348 10344 10339 10334 10330 10325 10320 10315 10310 10304 10299 10293 10287 10281 10275 10268 10261 10256 10251 10245 10240 10234 10229 10223 10217 10210 10203 10196 10189 10182 10174 10167 10159 10151 10142 10134 10127 10120 10115 10110
10439 10440 10441 10441 10442 10442 10441 10441 10441 10440 10439 10438 10436 10435 10433 10431 10430 10428 10425 10423 10421 10419 10417 10415 10412 10410 10407 10404 10400 10397 10394 10390 10387 10383 10379 10376 10373 10369 10366 10363 10359 10355 10350 10346 10342 10337 10333 10328 10324 10320 10315 10309 10305 10300 10294 10289 10283 10277 10271 10264 10257 10251 10245 10239 10233 10227 10221 10216 10210 10204 10198 10191 10184 10176 10169 10161 10153 10145 10137 10128 10120 10113 10107 10102 10097
10428 10429 10430 10431 10431 10431 10430 10430 10429 10428 10428 10426 10424 10423 10421 10419 10418 10416 10414 10412 10410 10408 10405 10403 10400 10398 10395 10391 10388 10385 10382 10379 10375 10372 10368 10365 10361 10358 10355 10352 10348 10344 10340 10335 10331 10326 10322 10317 10313 10308 10303 10298 10293 10288 10283 10277 10271 10266 10260 10253 10247 10241 10234 10228 10222 10216 10209 10203 10197 10190 10184 10176 10169 10162 10154 10146 10138 10130 10122 10114 10107 10100 10095 10089 10084
10417 10418 10419 10419 10420 10419 10419 10419 10418 10417 10416 10415 10414 10412 10410 10408 10406 10404 10402 10401 10398 10396 10394 10391 10388 10385 10382 10379 10377 10374 10371 10368 10365 10361 10357 10354 10350 10347 10343 10340 10337 10333 10329 10324 10319 10315 10310 10306 10301 10296 10291 10286 10281 10276 10271 10265 10259 10253 10247 10241 10235 10229 10222 10216 10210 10203 10196 10190 10183 10176 10169 10161 10153 10145 10138 10131 10124 10116 10108 10101 10094 10087 10082 10075 10070
10407 10407 10408 10408 10408 10408 10408 10407 10407 10406 10405 10404 10403 10401 10399 10397 10395 10393 10391 10389 10386 10384 10382 10379 10376 10373 10370 10368 10365 10362 10359 10356 10353 10349 10345 10342 10338 10335 10331 10328 10325 10321 10317 10313 10308 10303 10298 10293 10288 10283 10278 10274 10268 10263 10258 10252 10246 10240 10234 10228 10222 10215 10208 10202 10195 10189 10182 10176 10169 10161 10154 10145 10137 10128 10121 10116 10109 10102 10094 10088 10080 10073 10067 10060 10054
10396 10396 10397 10397 10397 10397 10397 10396 10395 10395 10394 10393 10391 10390 10388 10386 10384 10382 10380 10377 10375 10372 10370 10367 10365 10362 10359 10356 10354 10350 10347 10344 10340 10337 10333 10329 10326 10322 10319 10315 10312 10309 10305 10301 10296 10291 10286 10281 10276 10271 10266 10260 10255 10250 10244 10238 10232 10226 10220 10214 10208 10201 10195 10188 10182 10175 10169 10163 10156 10148 10140 10131 10122 10113 10107 10101 10095 10087 10080 10073 10066 10059 10052 10045 10039
10385 10385 10386 10386 10386 10386 10386 10385 10384 10384 10383 10381 10380 10378 10376 10374 10372 10370 10368 10365 10363 10360 10358 10355 10352 10349 10347 10344 10341 10338 10335 10332 10328 10324 10321 10317 10313 10310 10306 10302 10299 10295 10292 10288 10283 10278 10273 10269 10264 10259 10253 10248 10242 10236 10231 10225 10219 10213 10207 10201 10194 10188 10182 10176 10169 10163 10157 10150 10143 10135 10126 10117 10108 10100 10093 10087 10080 10073 10065 10058 10051 10044 10038 10031 10024
10373 10374 10375 10375 10375 10375 10374 10374 10374 10372 10371 10370 10368 10366 10364 10362 10360 10358 10356 10353 10351 10348 10346 10343 10340 10336 10334 10331 10328 10325 10322 10318 10315 10312 10308 10304 10301 10297 10293 10290 10286 10282 10278 10274 10269 10265 10260 10255 10250 10245 10240 10235 10229 10223 10218 10212 10206 10200 10194 10188 10181 10175 10169 10163 10157 10150 10143 10136 10128 10119 10110 10102 10094 10087 10080 10072 10065 10058 10051 10044 10036 10029 10022 10016 10008
10362 10363 10363 10363 10363 10363 10363 10362 10362 10360 10359 10358 10356 10354 10352 10350 10348 10346 10343 10341 10339 10336 10333 10331 10327 10324 10321 10318 10314 10311 10308 10304 10301 10298 10294 10291 10288 10284 10280 10277 10273 10269 10265 10260 10256 10251 10247 10242 10237 10232 10226 10221 10216 10210 10204 10198 10192 10186 10180 10174 10168 10162 10155 10148 10142 10136 10128 10121 10112 10103 10095 10087 10079 10072 10065 10058 10050 10043 10036 10030 10022 10014 10007 10000 9993
10350 10350 10351 10351 10351 10351 10351 10350 10349 10348 10347 10345 10343 10342 10340 10337 10335 10333 10331 10328 10326 10323 10321 10318 10315 10311 10308 10305 10301 10298 10295 10291 10288 10285 10281 10278 10274 10271 10267 10263 10259 10255 10252 10247 10243 10238 10233 10228 10223 10218 10212 10207 10202 10196 10190 10184 10178 10172 10167 10160 10154 10148 10141 10134 10128 10121 10113 10105 10097 10088 10079 10071 10064 10057 10050 10042 10035 10028 10021 10014 10006 9999 9991 9984 9977
10336 10337 10338 10338 10338 10338 10338 10337 10337 10335 10334 10332 10331 10329 10327 10325 10322 10320 10317 10315 10313 10310 10307 10304 10301 10297 10294 10291 10287 10284 10281 10277 10274 10271 10267 10264 10261 10257 10254 10250 10246 10242 10238 10234 10230 10225 10220 10214 10209 10203 10198 10192 10187 10181 10175 10170 10164 10158 10152 10146 10140 10134 10127 10120 10113 10105 10097 10089 10080 10072 10064 10056 10048 10041 10034 10027 10019 10012 10005 9997 9990 9982 9975 9968 9960
10324 10325 10325 10325 10325 10325 10325 10324 10324 10322 10320 10319 10317 10315 10313 10311 10309 10306 10304 10301 10299 10296 10293 10290 10287 10283 10280 10276 10273 10270 10266 10263 10260 10256 10253 10250 10247 10243 10239 10236 10232 10228 10224 10220 10215 10210 10205 10199 10194 10188 10182 10177 10171 10166 10160 10154 10149 10143 10137 10132 10126 10119 10112 10104 10096 10087 10079 10072 10064 10056 10048 10040 10032 10025 10018 10011 10003 9996 9989 9981 9973 9966 9958 9951 9942
10312 10313 10313 10313 10313 10312 10311 10311 10310 10308 10306 10305 10303 10301 10299 10297 10295 10292 10290 10287 10284 10282 10279 10275 10272 10269 10265 10261 10258 10254 10251 10248 10244 10241 10238 10235 10231 10228 10224 10221 10217 10213 10209 10205 10201 10195 10190 10184 10179 10172 10167 10161 10156 10150 10145 10139 10133 10128 10122 10117 10110 10103 10095 10086 10078 10069 10061 10054 10047 10040 10032 10025 10017 10009 10001 9994 9986 9979 9972 9964 9956 9949 9941 9932 9924
10300 10300 10300 10300 10299 10298 10298 10297 10295 10293 10292 10290 10289 10287 10285 10282 10280 10278 10275 10272 10270 10267 10264 10261 10258 10254 10251 10247 10243 10239 10236 10233 10229 10226 10223 10220 10216 10213 10209 10206 10202 10198 10194 10190 10185 10180 10175 10170 10164 10158 10152 10146 10140 10135 10129 10123 10118 10112 10106 10100 10093 10085 10076 10067 10059 10051 10044 10037 10030 10023 10016 10008 10001 9992 9984 9977 9970 9962 9955 9948 9939 9931 9923 9914 9906
10286 10286 10287 10286 10286 10285 10284 10282 10281 10279 10277 10275 10274 10272 10270 10268 10265 10263 10260 10258 10255 10252 10249 10246 10243 10239 10236 10232 10228 10225 10221 10218 10214 10211 10208 10204 10201 10198 10194 10190 10187 10182 10178 10173 10169 10164 10159 10154 10148 10143 10137 10131 10125 10119 10113 10107 10101 10095 10088 10081 10073 10064 10056 10048 10040 10033 10026 10019 10012 10006 9998 9991 9983 9975 9967 9960 9953 9946 9938 9930 9921 9913 9905 9896 9888
10273 10273 10273 10273 10272 10271 10270 10268 10267 10265 10262 10260 10259 10256 10254 10252 10250 10248 10245 10242 10239 10236 10234 10231 10228 10224 10221 10217 10213 10210 10206 10203 10199 10196 10192 10189 10185 10181 10178 10174 10170 10165 10161 10156 10151 10146 10142 10136 10131 10126 10120 10115 10109 10102 10096 10090 10083 10076 10068 10059 10051 10044 10036 10028 10021 10014 10008 10001 9994 9987 9979 9972 9964 9957 9949 9942 9935 9928 9920 9912 9904 9896 9887 9879 9871
10259 10259 10259 10259 10258 10257 10255 10254 10251 10249 10247 10245 10243 10241 10239 10237 10234 10231 10228 10226 10224 10221 10218 10215 10212 10209 10205 10202 10198 10195 10191 10187 10183 10180 10176 10172 10168 10165 10161 10157 10152 10148 10143 10138 10133 10129 10124 10119 10114 10109 10103 10098 10092 10086 10079 10072 10064 10056 10047 10039 10031 10024 10017 10009 10002 9996 9989 9982 9974 9967 9959 9952 9945 9938 9931 9924 9917 9909 9902 9894 9886 9878 9870 9862 9855
10243 10243 10243 10243 10242 10241 10239 10237 10235 10233 10231 10229 10227 10225 10223 10220 10217 10215 10213 10210 10208 10205 10203 10200 10196 10193 10190 10186 10183 10179 10175 10171 10167 10163 10159 10156 10152 10147 10143 10139 10134 10130 10125 10120 10115 10111 10106 10101 10096 10091 10086 10080 10074 10068 10061 10053 10045 10036 10028 10020 10013 10006 9998 9991 9984 9978 9971 9963 9955 9947 9939 9932 9926 9919 9912 9905 9898 9891 9884 9876 9868 9861 9853 9846 9840
10226 10226 10226 10225 10224 10223 10222 10220 10219 10217 10215 10213 10211 10208 10206 10203 10201 10199 10197 10195 10192 10190 10187 10183 10180 10177 10174 10170 10167 10163 10159 10155 10151 10147 10143 10139 10134 10130 10126 10122 10117 10112 10107 10102 10097 10093 10088 10084 10079 10073 10068 10062 10056 10049 10042 10034 10025 10017 10010 10002 9995 9988 9980 9972 9966 9959 9952 9945 9937 9929 9921 9914 9907 9900 9893 9887 9880 9873 9865 9858 9852 9845 9838 9831 9825
10209 10208 10207 10207 10207 10207 10206 10204 10203 10200 10198 10196 10194 10191 10190 10188 10186 10184 10181 10179 10176 10174 10170 10167 10164 10161 10157 10154 10150 10146 10142 10138 10134 10130 10126 10121 10117 10113 10109 10104 10100 10095 10090 10085 10080 10076 10071 10066 10061 10055 10049 10043 10037 10030 10022 10015 10007 9999 9992 9985 9978 9970 9962 9955 9948 9941 9933 9926 9919 9911 9904 9896 9889 9882 9875 9868 9861 9854 9848 9842 9835 9829 9823 9817 9811